Location: Newark
(60.5925°N, 45.5911°E)
Time: 15:42:39
(UTC+00:00)

ISS - Pass Details

Date: 29 September 2019
Orbit: 411 x 421 km, 51.6° (Epoch: 20 October)

Event Time Altitude Azimuth Distance (km) Brightness Sun altitude
Rises 17:00:21 0° 255° (WSW) 2,347 0.8 -17.8°
Reaches altitude 10° 17:03:02 10° 232° (SW) 1,483 -0.7 -18.1°
Enters shadow 17:04:51 15° 199° (SSW) 1,202 -1.6 -18.3°
